When you browse on this site, cookies collect data to enhance your experience and personalize the content and advertising you see.
Visit our Privacy Policy to learn more. By continuing to use the site, you agree to this use of cookies and data.
  • In Portugal
  • List of Countries
  • For 7 days
  • Water Temperature
  • Satellite Maps
  • Weather Map
  • Weather Widgets
  • user-avatar
    Login

    Hourly Weather Tirana

    Today, 24 March, Sunday

    Time Temperature Precipitation Wind Pressure Humidity
    00:00 +13°C° 0 mm 3 mps 757 mmHg 52%
    01:00 +13°C° 0 mm 3 mps 757 mmHg 52%
    02:00 +13°C° 0 mm 3 mps 757 mmHg 53%
    03:00 +13°C° 0 mm 2 mps 757 mmHg 54%
    04:00 +13°C° 0 mm 2 mps 757 mmHg 55%
    05:00 +13°C° 0 mm 2 mps 757 mmHg 56%
    06:00 +14°C° 0 mm 2 mps 757 mmHg 56%
    07:00 +14°C° 0 mm 2 mps 757 mmHg 56%
    08:00 +17°C° 0 mm 2 mps 757 mmHg 48%
    09:00 +19°C° 0 mm 2 mps 757 mmHg 40%
    10:00 +22°C° 0 mm 1 mps 757 mmHg 32%
    11:00 +23°C° 0 mm 2 mps 757 mmHg 31%
    12:00 +24°C° 0 mm 3 mps 756 mmHg 30%
    13:00 +23°C° 0 mm 4 mps 756 mmHg 30%
    14:00 +22°C° 0 mm 4 mps 756 mmHg 33%
    15:00 +22°C° 0 mm 5 mps 756 mmHg 37%
    16:00 +21°C° 0 mm 5 mps 755 mmHg 41%
    17:00 +19°C° 0 mm 4 mps 755 mmHg 48%
    18:00 +17°C° 0 mm 3 mps 755 mmHg 56%
    19:00 +14°C° 0 mm 3 mps 755 mmHg 63%
    20:00 +14°C° 0 mm 2 mps 755 mmHg 64%
    21:00 +14°C° 0 mm 1 mps 756 mmHg 64%
    22:00 +13°C° 0 mm 0 mps 756 mmHg 65%
    23:00 +13°C° 0 mm 1 mps 756 mmHg 65%

    Tomorrow, 25 March, Monday

    Time Temperature Precipitation Wind Pressure Humidity
    00:00 +13°C° 0 mm 1 mps 756 mmHg 65%
    01:00 +13°C° 0 mm 1 mps 755 mmHg 65%
    02:00 +12°C° 0 mm 1 mps 755 mmHg 65%
    03:00 +12°C° 0 mm 1 mps 755 mmHg 65%
    04:00 +12°C° 0 mm 1 mps 754 mmHg 66%
    05:00 +13°C° 0 mm 1 mps 754 mmHg 64%
    06:00 +13°C° 0 mm 1 mps 754 mmHg 62%
    07:00 +14°C° 0 mm 2 mps 754 mmHg 60%
    08:00 +16°C° 0 mm 2 mps 754 mmHg 54%
    09:00 +17°C° 0 mm 2 mps 753 mmHg 48%
    10:00 +19°C° 0 mm 2 mps 753 mmHg 43%
    11:00 +19°C° 0 mm 2 mps 753 mmHg 42%
    12:00 +20°C° 0 mm 3 mps 752 mmHg 41%
    13:00 +20°C° 0 mm 3 mps 752 mmHg 41%
    14:00 +20°C° 0 mm 3 mps 751 mmHg 44%
    15:00 +19°C° 0 mm 3 mps 751 mmHg 47%
    16:00 +19°C° 0 mm 2 mps 750 mmHg 50%
    17:00 +17°C° 0 mm 2 mps 750 mmHg 57%
    18:00 +15°C° 0 mm 1 mps 750 mmHg 63%
    19:00 +14°C° 0 mm 1 mps 750 mmHg 70%
    20:00 +13°C° 0 mm 1 mps 750 mmHg 68%
    21:00 +13°C° 0 mm 2 mps 750 mmHg 66%
    22:00 +13°C° 0 mm 2 mps 750 mmHg 64%
    23:00 +12°C° 0 mm 2 mps 750 mmHg 61%

    Day after tomorrow, 26 March, Tuesday

    Time Temperature Precipitation Wind Pressure Humidity
    00:00 +12°C° 0 mm 2 mps 750 mmHg 58%
    01:00 +12°C° 0 mm 2 mps 750 mmHg 54%
    02:00 +11°C° 0 mm 3 mps 750 mmHg 53%
    03:00 +11°C° 0 mm 3 mps 750 mmHg 51%
    04:00 +11°C° 0 mm 3 mps 750 mmHg 49%
    05:00 +13°C° 0 mm 2 mps 750 mmHg 50%
    06:00 +13°C° 0 mm 2 mps 750 mmHg 52%
    07:00 +14°C° 0 mm 2 mps 751 mmHg 53%
    08:00 +15°C° 0 mm 2 mps 751 mmHg 49%
    09:00 +17°C° 0 mm 2 mps 751 mmHg 45%
    10:00 +20°C° 0 mm 1 mps 751 mmHg 41%
    11:00 +19°C° 0 mm 2 mps 751 mmHg 41%
    12:00 +20°C° 0 mm 3 mps 751 mmHg 40%
    13:00 +20°C° 0 mm 4 mps 751 mmHg 40%
    14:00 +20°C° 0 mm 4 mps 751 mmHg 41%
    15:00 +20°C° 0 mm 4 mps 751 mmHg 42%
    16:00 +19°C° 0 mm 5 mps 752 mmHg 43%
    17:00 +18°C° 0 mm 4 mps 752 mmHg 48%
    18:00 +15°C° 0 mm 4 mps 753 mmHg 52%
    19:00 +14°C° 0 mm 4 mps 754 mmHg 56%
    20:00 +13°C° 0 mm 4 mps 754 mmHg 56%
    21:00 +13°C° 0 mm 4 mps 755 mmHg 55%
    22:00 +12°C° 0 mm 5 mps 755 mmHg 55%
    23:00 +12°C° 0 mm 5 mps 755 mmHg 55%

    27 March, Wednesday

    Time Temperature Precipitation Wind Pressure Humidity
    00:00 +10°C° 0 mm 5 mps 755 mmHg 55%
    01:00 +9°C° 0 mm 5 mps 756 mmHg 56%
    02:00 +9°C° 0 mm 5 mps 756 mmHg 56%
    03:00 +9°C° 0 mm 5 mps 756 mmHg 55%
    04:00 +8°C° 0 mm 5 mps 756 mmHg 55%
    05:00 +9°C° 0 mm 5 mps 756 mmHg 54%
    06:00 +10°C° 0 mm 4 mps 756 mmHg 53%
    07:00 +11°C° 0 mm 4 mps 756 mmHg 51%
    08:00 +13°C° 0 mm 4 mps 756 mmHg 46%
    09:00 +16°C° 0 mm 3 mps 756 mmHg 40%
    10:00 +18°C° 0 mm 3 mps 756 mmHg 34%
    11:00 +19°C° 0 mm 3 mps 756 mmHg 34%
    12:00 +20°C° 0 mm 3 mps 756 mmHg 33%
    13:00 +20°C° 0 mm 2 mps 756 mmHg 33%
    14:00 +20°C° 0 mm 3 mps 755 mmHg 35%
    15:00 +19°C° 0 mm 4 mps 755 mmHg 38%
    16:00 +17°C° 0 mm 5 mps 755 mmHg 41%
    17:00 +17°C° 0.2 mm 4 mps 755 mmHg 49%
    18:00 +16°C° 0.2 mm 3 mps 756 mmHg 57%
    19:00 +13°C° 0.2 mm 3 mps 756 mmHg 65%
    20:00 +14°C° 0.1 mm 2 mps 756 mmHg 68%
    21:00 +13°C° 0.1 mm 2 mps 756 mmHg 71%
    22:00 +13°C° 0.1 mm 2 mps 756 mmHg 74%
    23:00 +13°C° 0 mm 2 mps 756 mmHg 72%

    28 March, Thursday

    Time Temperature Precipitation Wind Pressure Humidity
    00:00 +12°C° 0 mm 2 mps 756 mmHg 69%
    01:00 +11°C° 0 mm 3 mps 756 mmHg 66%
    02:00 +11°C° 0 mm 3 mps 756 mmHg 64%
    03:00 +11°C° 0 mm 4 mps 756 mmHg 62%
    04:00 +11°C° 0 mm 4 mps 756 mmHg 60%
    05:00 +12°C° 0 mm 4 mps 756 mmHg 60%
    06:00 +12°C° 0 mm 4 mps 756 mmHg 60%
    07:00 +12°C° 0 mm 5 mps 757 mmHg 60%
    08:00 +14°C° 0 mm 5 mps 757 mmHg 53%
    09:00 +15°C° 0 mm 4 mps 757 mmHg 46%
    10:00 +17°C° 0 mm 4 mps 757 mmHg 39%
    11:00 +18°C° 0 mm 4 mps 757 mmHg 37%
    12:00 +19°C° 0 mm 4 mps 757 mmHg 35%
    13:00 +19°C° 0 mm 4 mps 757 mmHg 33%
    14:00 +19°C° 0 mm 4 mps 757 mmHg 33%
    15:00 +19°C° 0 mm 4 mps 757 mmHg 34%
    16:00 +19°C° 0 mm 4 mps 757 mmHg 34%
    17:00 +17°C° 0 mm 4 mps 757 mmHg 38%
    18:00 +15°C° 0 mm 4 mps 757 mmHg 41%
    19:00 +13°C° 0 mm 4 mps 758 mmHg 45%
    20:00 +13°C° 0 mm 4 mps 758 mmHg 48%
    21:00 +12°C° 0 mm 4 mps 759 mmHg 51%
    22:00 +11°C° 0 mm 3 mps 759 mmHg 54%
    23:00 +10°C° 0 mm 3 mps 759 mmHg 55%

    29 March, Friday

    Time Temperature Precipitation Wind Pressure Humidity
    00:00 +10°C° 0 mm 3 mps 759 mmHg 56%
    01:00 +8°C° 0 mm 4 mps 759 mmHg 57%
    02:00 +8°C° 0 mm 4 mps 759 mmHg 57%
    03:00 +7°C° 0 mm 4 mps 759 mmHg 57%
    04:00 +7°C° 0 mm 4 mps 759 mmHg 58%
    05:00 +7°C° 0 mm 4 mps 760 mmHg 56%
    06:00 +8°C° 0 mm 4 mps 760 mmHg 54%
    07:00 +9°C° 0 mm 5 mps 760 mmHg 52%
    08:00 +12°C° 0 mm 4 mps 760 mmHg 45%
    09:00 +13°C° 0 mm 4 mps 760 mmHg 37%
    10:00 +15°C° 0 mm 4 mps 760 mmHg 29%
    11:00 +17°C° 0 mm 4 mps 759 mmHg 27%
    12:00 +18°C° 0 mm 4 mps 759 mmHg 25%
    13:00 +19°C° 0 mm 4 mps 759 mmHg 24%
    14:00 +19°C° 0 mm 4 mps 758 mmHg 24%
    15:00 +19°C° 0 mm 5 mps 758 mmHg 25%
    16:00 +19°C° 0 mm 5 mps 758 mmHg 25%
    17:00 +16°C° 0 mm 5 mps 758 mmHg 29%
    18:00 +14°C° 0 mm 5 mps 758 mmHg 32%
    19:00 +11°C° 0 mm 6 mps 759 mmHg 36%
    20:00 +10°C° 0 mm 5 mps 759 mmHg 38%
    21:00 +10°C° 0 mm 5 mps 759 mmHg 40%
    22:00 +9°C° 0 mm 5 mps 760 mmHg 42%
    23:00 +8°C° 0 mm 5 mps 760 mmHg 43%
    Show more